Regional Weather Roundup
Issued by NWS

Home | Current Version | Previous Version | Graphics & Text | Print | Product List | Glossary On
Versions: 1 2 3 4 5 6 7 8 9 10 11 12 13 14 15 16 17 18 19 20 21 22 23 24 25 26 27 28 29 30 31 32 33 34 35 36 37 38 39 40 41 42 43 44 45 46 47 48 49 50
000
ASUS45 KSLC 221610
RWRUT

UTAH REGIONAL WEATHER ROUNDUP
NATIONAL WEATHER SERVICE SALT LAKE CITY UT
900 AM MST THU FEB 22 2018

UTZ001>011-023>025-221700-

NORTHERN UTAH

CITY           SKY/WX    TMP DP  RH WIND       PRES   REMARKS
BRIGHAM CITY   CLOUDY    20  11  68 NW3       30.00S
DUGWAY         CLOUDY    18  11  74 SE9       29.99R WCI   7
HILL AFB       NOT AVBL
LOGAN          CLOUDY    11   3  70 W5        30.01S WCI   3
OGDEN          CLOUDY    20   8  60 CALM      29.97R
SALT LAKE CITY PTSUNNY   27  15  61 SE8       29.98S WCI  19
TOOELE VALLEY  PTSUNNY   21  12  68 S10G16    29.98S WCI  10
WENDOVER       PTSUNNY   20  13  74 E6        29.98R WCI  12
HEBER CITY       N/A     10   9  92 CALM      29.97S
WEST JORDAN    MOSUNNY   23  14  68 S16       29.98S WCI   9

$$

UTZ011>015-024>027-221700-

CENTRAL/NORTHEAST UTAH

CITY           SKY/WX    TMP DP  RH WIND       PRES   REMARKS
PROVO AIRPORT  CLOUDY    20  12  71 SW5       30.01F WCI  13
MOAB/CANYONLAN CLOUDY    30  26  85 SE3       30.00R
DELTA          PTSUNNY   14  12  92 CALM      29.99R
PRICE          CLOUDY    23  19  85 CALM      29.97R
RICHFIELD      SUNNY     19  14  79 CALM      30.00
VERNAL         CLOUDY    17   8  67 CALM      30.03R

$$

UTZ013>016-019>022-027-221700-

SOUTHERN UTAH

CITY           SKY/WX    TMP DP  RH WIND       PRES   REMARKS
BRYCE CANYON   MOSUNNY   10   8  92 CALM      29.95R
CEDAR CITY     MOSUNNY   17  14  88 CALM      29.98R
MILFORD        MOSUNNY   16  11  80 SW18      29.98S WCI   0
ST GEORGE      PTSUNNY   32  18  56 CALM      30.12R
HANKSVILLE     MOSUNNY   28   9  43 N3        30.05R
KANAB          SUNNY     23  16  74 CALM      30.11
BLANDING         N/A     32  17  55 SW6       30.07R WCI  26

$$

REGIONAL REPORTS     COLORADO/ARIZONA

CITY           SKY/WX    TMP DP  RH WIND       PRES   REMARKS
CRAIG, CO      LGT SNOW  16  10  77 CALM      29.98S
GRAND JUNCTION LGT SNOW  29  28  96 CALM      30.00S FOG
RIFLE, CO      LGT SNOW  25  23  92 CALM      29.99S FOG
MONTROSE, CO   LGT SNOW  25  24  96 CALM      30.00S FOG
CORTEZ, CO     CLOUDY    29  27  92 S7        30.02R WCI  22
COLORADO CITY    N/A     28  21  74 SE3       30.09R
PAGE, AZ       MOSUNNY   33  16  49 CALM      30.06R
GRAND CANYON   MOSUNNY   21  13  71 CALM      30.04R
KINGMAN, AZ    SUNNY     40  12  32 S10       30.11R WCI  33
FLAGSTAFF, AZ  SUNNY     23   4  44 SW16      30.03R WCI  10

$$

REGIONAL REPORTS    NEVADA/IDAHO/WYOMING

CITY           SKY/WX    TMP DP  RH WIND       PRES   REMARKS
LAS VEGAS, NV  MOSUNNY   40  14  34 S5        30.09R
ELY, NY        CLOUDY    21   7  54 S10       29.90R WCI  10
ELKO, NV       SNOW      17  14  88 E5        29.90R VSB 1/2 WCI  10
POCATELLO, ID  PTSUNNY   22   9  57 CALM      29.96R
BURLEY, ID     PTSUNNY   24  12  60 S13       29.91S WCI  12
EVANSTON, WY   MOSUNNY    3  -4  72 E12       29.90R WCI -13
ROCK SPRINGS,  MOSUNNY    2  -3  80 SW5       29.97R WCI  -8

$$



USA.gov is the U.S. government's official web portal to all federal, state and local government web resources and services.